Location: Helsinki
(60.1699°N, 24.9384°E)
Time: 12:28:50
(UTC+02:00)

Transit 2A Rocket - Pass Details

Date: 23 September 2023
Orbit: 593 x 903 km, 66.7° (Epoch: 06 December)

Event Time Altitude Azimuth Distance (km) Brightness Sun altitude
Rises 20:23:19 0° 279° (W) 3,184 10.5 -8.8°
Reaches altitude 10° 20:25:56 10° 287° (WNW) 2,207 9.1 -9.2°
Maximum altitude 20:30:35 38° 356° (N) 1,030 5.9 -9.7°
Drops below altitude 10° 20:34:54 10° 65° (ENE) 2,040 6.8 -10.2°
Enters shadow 20:35:32 - 68° (ENE) 2,271 7.0 -10.3°
Sets 20:37:15 0° 74° (ENE) 2,913 - -10.5°
